Temp
61 54 51 58 61 64 61 60 59 62 62 62 53 45 43 44 43 40 38 37 37 37 38 39 38 38 36 36 36 37 37 39 42 45 48 63 64 67 68 68 69 69 69 68
54 50 61 64 63 60 58 56 57 62 62 59 50 41 41 41 38 37 36 35 35 36 36 37 37 37 35 34 34 34 35 36 38 40 44 52 59 64 66 67 66 67 67 66
54 57 59 58 56 54 56 55 57 56 56 59 50 39 37 40 41 40 38 38 36 34 33 34 35 35 35 33 32 33 34 34 35 37 41 46 55 60 61 62 62 63 64 64
56 61 56 54 54 57 51 61 58 56 52 48 58 46 42 39 36 37 36 36 35 35 35 34 33 34 33 33 33 33 33 33 34 35 35 36 39 40 47 57 61 63 63 62
53 52 51 51 55 60 54 57 56 55 52 53 51 47 35 40 35 32 34 34 34 35 35 34 34 35 35 34 33 33 32 31 32 32 32 32 33 37 40 42 50 59 61 61
55 57 56 56 56 57 57 55 54 53 52 39 50 49 36 37 32 31 33 33 33 33 34 34 35 36 35 36 35 34 33 31 31 31 31 30 30 31 32 34 37 43 49 54
52 52 54 56 52 54 53 50 41 38 37 38 49 49 28 28 29 30 29 30 32 32 32 32 31 32 33 33 33 34 34 33 32 31 29 29 28 30 30 30 31 33 35 38
44 38 49 52 52 50 49 51 44 35 38 44 47 41 23 29 32 32 31 31 31 30 31 30 31 31 31 31 32 32 32 31 33 33 31 29 28 28 29 29 30 30 31 33
45 43 49 49 51 51 49 43 52 44 49 41 39 22 27 30 29 30 29 29 28 28 29 29 30 30 30 30 30 30 30 30 31 31 32 32 30 27 26 27 29 29 30 32
46 40 46 47 51 51 48 51 41 44 33 33 43 34 27 25 26 27 26 25 26 27 28 28 28 28 29 29 29 29 29 28 29 29 30 30 30 30 29 27 26 27 28 29
44 42 41 46 38 39 45 44 44 43 42 36 36 28 31 27 26 24 24 25 24 25 25 26 27 27 27 27 27 26 26 26 26 27 28 27 28 29 29 29 28 27 27 27
40 39 38 36 39 42 39 36 38 36 37 38 33 23 27 26 24 25 24 24 24 24 23 24 24 24 23 22 22 22 22 22 23 24 25 25 26 26 25 26 27 28 27 28
39 36 30 31 35 38 32 30 33 34 32 30 29 22 24 24 23 23 22 22 21 21 20 20 20 19 18 18 18 18 18 19 20 21 21 22 22 22 22 23 24 25 25 26
41 33 28 28 27 32 27 27 29 28 25 27 27 13 16 18 17 19 19 19 17 17 16 16 15 15 15 15 14 15 15 16 17 18 18 18 19 20 20 21 21 22 23 23
36 26 28 29 31 29 25 24 24 24 18 20 14 14 13 11 11 12 14 17 16 15 14 13 13 13 13 13 13 13 14 14 15 14 14 15 18 18 17 19 19 20 21 21
35 25 27 23 27 28 20 20 21 21 16 13 11 10 11 13 15 16 15 14 13 13 12 12 12 12 12 11 12 13 13 13 14 13 13 15 17 16 15 17 17 18 19 19
31 26 23 21 25 24 17 13 18 17 16 14 17 10 13 13 13 12 11 12 11 10 10 10 11 11 11 11 12 10 11 13 13 13 14 15 16 15 15 17 17 17 18 20
30 27 26 18 22 11 9 15 14 13 11 12 12 9 9 9 11 12 13 13 9 9 9 9 10 9 10 12 10 11 11 12 12 13 14 15 15 15 17 17 17 17 19 19
33 29 18 17 18 10 8 10 9 8 9 8 8 8 10 8 10 10 12 10 9 9 9 9 10 10 11 10 11 11 11 12 12 13 14 15 16 15 16 16 16 18 19 19
30 31 25 19 15 12 11 12 12 10 10 8 7 6 6 7 9 11 10 10 9 10 11 10 12 13 11 11 13 12 12 13 13 14 15 16 16 16 15 16 16 18 18 19
22 22 19 20 17 8 10 11 11 7 7 8 8 6 5 5 9 10 10 9 11 12 12 13 12 11 12 14 14 12 13 12 15 16 16 16 16 15 16 16 17 17 17 18
16 16 18 15 14 10 12 8 7 6 7 7 7 8 5 6 6 6 8 9 10 10 11 13 12 12 14 15 14 12 12 15 15 15 14 14 14 15 16 14 15 16 16 14
12 8 14 10 10 11 10 8 7 6 4 8 6 6 4 3 4 6 7 9 10 11 12 13 12 11 13 15 15 12 13 14 14 13 12 12 13 14 14 13 13 13 13 13
8 8 12 8 7 9 6 4 6 5 3 3 5 4 4 2 5 6 9 9 10 11 11 12 11 10 12 14 14 14 14 14 13 11 11 12 11 12 13 13 14 12 11 10
9 10 7 8 6 5 4 8 8 3 0 -0 3 5 5 7 7 8 8 9 10 10 11 11 11 11 11 13 13 14 14 13 11 10 10 10 11 10 10 12 12 12 13 14
11 8 11 11 5 5 7 6 4 1 1 4 5 6 8 9 8 9 8 9 9 9 11 12 11 11 11 12 12 13 14 13 10 9 9 9 10 9 9 9 9 15 17 18
MSLP
1009.22 1009.17 1008.28 1007.82 1007.52 1006.69 1006.56 1006.18 1006.30 1007.19 1008.87 1009.95 1012.76 1016.52 1019.69 1021.80 1023.03 1024.28 1025.44 1026.30 1026.96 1027.50 1028.25 1028.32 1028.21 1028.04 1027.72 1027.11 1026.44 1025.76 1024.89 1024.12 1022.92 1021.72 1020.41 1018.39 1018.05 1018.03 1018.10 1018.22 1018.35 1018.39 1018.48 1018.67
1009.36 1008.47 1008.01 1007.65 1007.36 1007.33 1007.38 1006.99 1006.84 1007.29 1008.78 1010.38 1013.49 1017.00 1020.15 1022.31 1024.06 1025.45 1026.37 1027.27 1027.91 1028.32 1028.49 1028.72 1028.73 1028.73 1028.61 1028.43 1027.86 1027.11 1026.46 1025.67 1024.77 1023.70 1022.32 1020.78 1019.24 1018.45 1018.34 1018.39 1018.69 1018.75 1018.75 1018.90
1008.03 1008.02 1008.11 1008.09 1008.07 1007.90 1007.58 1007.23 1007.02 1007.67 1009.14 1010.25 1012.79 1016.61 1019.71 1022.49 1024.17 1025.64 1026.90 1027.91 1028.63 1029.15 1029.40 1029.56 1029.50 1029.50 1029.51 1029.32 1029.04 1028.58 1027.95 1027.20 1026.39 1025.45 1023.80 1021.94 1020.29 1019.54 1019.26 1019.09 1019.07 1019.07 1019.22 1019.24
1008.34 1008.07 1008.48 1008.50 1008.09 1008.03 1007.53 1007.41 1007.78 1008.15 1009.09 1009.18 1010.83 1013.65 1018.01 1021.55 1024.03 1025.90 1027.32 1028.38 1029.09 1029.63 1030.06 1030.39 1030.42 1030.29 1030.33 1030.32 1030.16 1029.70 1029.05 1028.35 1027.65 1026.90 1025.81 1024.96 1024.04 1022.96 1022.09 1020.24 1019.63 1019.25 1019.49 1019.53
1008.23 1008.67 1008.83 1008.58 1008.09 1008.10 1007.99 1008.25 1008.19 1008.54 1008.94 1009.27 1010.71 1013.27 1017.95 1021.26 1023.84 1026.35 1028.03 1029.10 1029.82 1030.32 1030.62 1030.82 1030.92 1030.96 1031.03 1030.94 1030.76 1030.47 1030.05 1029.46 1028.88 1028.22 1027.58 1026.76 1025.92 1025.19 1024.24 1022.93 1021.65 1020.28 1019.78 1020.06
1008.70 1009.27 1009.12 1008.67 1009.01 1008.79 1009.02 1008.83 1008.94 1009.09 1009.14 1009.51 1010.31 1013.09 1018.12 1021.64 1024.80 1027.14 1028.83 1029.95 1030.61 1031.04 1031.28 1031.57 1031.65 1031.56 1031.52 1031.38 1031.10 1030.82 1030.46 1030.19 1029.81 1029.35 1028.81 1028.22 1027.62 1026.90 1026.04 1025.38 1024.56 1023.47 1022.18 1021.36
1009.09 1009.32 1009.71 1009.68 1009.42 1009.69 1009.48 1008.99 1008.70 1009.05 1009.30 1008.84 1010.52 1013.51 1020.35 1024.29 1026.91 1028.69 1029.92 1030.82 1031.44 1031.86 1032.02 1032.21 1032.25 1032.18 1032.13 1031.98 1031.76 1031.39 1030.95 1030.60 1030.50 1030.27 1029.89 1029.52 1029.05 1028.43 1027.88 1027.41 1026.66 1025.80 1025.00 1024.25
1009.14 1009.81 1010.00 1010.29 1009.76 1009.42 1009.49 1008.93 1008.04 1007.63 1007.97 1008.88 1012.05 1015.95 1022.15 1025.98 1028.20 1029.82 1030.81 1031.53 1032.19 1032.60 1032.90 1033.09 1033.19 1033.15 1033.06 1032.92 1032.70 1032.42 1031.95 1031.55 1031.20 1030.87 1030.64 1030.55 1030.12 1029.64 1029.19 1028.72 1028.08 1027.40 1026.81 1026.18
1009.88 1010.17 1011.00 1011.18 1011.01 1010.77 1010.01 1009.82 1009.42 1009.04 1009.03 1010.40 1013.12 1019.99 1024.27 1026.84 1028.80 1030.28 1031.40 1032.26 1033.02 1033.51 1033.77 1033.95 1034.04 1034.08 1034.00 1033.85 1033.64 1033.34 1033.04 1032.65 1032.22 1031.77 1031.30 1030.92 1030.72 1030.42 1030.10 1029.68 1029.11 1028.48 1027.84 1026.98
1011.40 1011.30 1011.74 1011.98 1011.94 1011.71 1011.32 1011.18 1010.66 1010.49 1010.17 1011.08 1013.21 1018.35 1023.14 1026.85 1029.01 1030.78 1032.02 1033.12 1033.83 1034.29 1034.56 1034.73 1034.77 1034.85 1034.86 1034.76 1034.61 1034.35 1034.02 1033.61 1033.24 1032.79 1032.20 1031.69 1031.14 1030.69 1030.43 1030.19 1029.63 1029.07 1028.43 1027.67
1012.98 1012.50 1012.99 1012.92 1013.81 1013.61 1012.82 1012.44 1012.26 1012.12 1011.92 1012.79 1015.26 1021.22 1025.12 1027.75 1030.26 1031.74 1033.06 1034.02 1034.69 1035.15 1035.49 1035.66 1035.68 1035.75 1035.83 1035.74 1035.53 1035.28 1034.91 1034.50 1034.04 1033.56 1033.02 1032.48 1031.92 1031.43 1030.90 1030.40 1029.92 1029.44 1028.90 1028.20
1014.82 1014.23 1013.89 1015.14 1016.32 1016.40 1016.23 1015.95 1015.48 1014.80 1014.43 1015.74 1018.75 1024.24 1028.05 1030.11 1031.97 1033.08 1034.04 1034.90 1035.62 1036.16 1036.53 1036.73 1036.76 1036.71 1036.71 1036.65 1036.50 1036.29 1035.97 1035.53 1035.09 1034.52 1033.90 1033.19 1032.64 1032.14 1031.68 1031.11 1030.55 1029.91 1029.21 1028.50
1016.11 1015.82 1016.04 1016.79 1017.59 1017.84 1018.20 1018.92 1018.69 1018.43 1018.65 1019.09 1021.86 1026.55 1030.16 1032.04 1033.33 1034.45 1035.14 1035.94 1036.67 1037.20 1037.60 1037.79 1037.76 1037.75 1037.83 1037.74 1037.54 1037.25 1036.89 1036.42 1035.87 1035.23 1034.62 1033.93 1033.35 1032.81 1032.32 1031.77 1031.14 1030.48 1029.85 1029.19
1017.25 1017.35 1017.70 1018.01 1018.82 1019.49 1020.40 1021.18 1021.42 1021.40 1021.98 1022.69 1024.90 1028.71 1031.86 1033.63 1034.88 1035.80 1036.50 1037.07 1037.60 1038.03 1038.41 1038.58 1038.54 1038.50 1038.50 1038.38 1038.17 1037.84 1037.43 1037.00 1036.41 1035.78 1035.14 1034.43 1033.72 1033.26 1032.81 1032.13 1031.54 1030.88 1030.21 1029.60
1018.59 1018.93 1019.39 1019.98 1020.66 1021.50 1022.63 1023.49 1024.09 1024.45 1025.68 1026.83 1028.83 1030.96 1033.70 1035.67 1036.71 1037.38 1037.86 1038.05 1038.45 1038.82 1039.26 1039.44 1039.38 1039.21 1038.98 1038.75 1038.46 1038.10 1037.63 1037.16 1036.60 1035.94 1035.35 1034.69 1033.99 1033.55 1033.11 1032.25 1031.69 1030.96 1030.30 1029.70
1019.84 1020.20 1020.70 1021.52 1022.30 1023.19 1024.75 1026.11 1026.83 1027.62 1028.71 1029.86 1031.49 1033.73 1036.06 1037.09 1037.71 1037.82 1038.34 1038.78 1039.20 1039.62 1039.99 1040.01 1039.85 1039.61 1039.35 1039.09 1038.65 1038.27 1037.76 1037.24 1036.66 1036.02 1035.40 1034.74 1034.05 1033.58 1033.04 1032.32 1031.67 1030.97 1030.28 1029.63
1020.58 1021.09 1021.70 1022.39 1023.77 1024.97 1027.05 1029.11 1029.75 1030.61 1031.74 1032.80 1033.80 1035.92 1037.09 1037.74 1038.38 1038.79 1039.19 1039.51 1039.87 1040.35 1040.46 1040.36 1040.23 1039.96 1039.70 1039.33 1038.95 1038.48 1037.91 1037.35 1036.71 1036.04 1035.33 1034.62 1033.95 1033.41 1032.78 1032.13 1031.49 1030.86 1030.18 1029.43
1021.39 1021.84 1022.60 1023.70 1025.02 1027.48 1030.53 1031.96 1032.86 1033.30 1034.33 1035.32 1036.34 1037.75 1038.63 1039.14 1039.26 1039.34 1039.63 1039.94 1040.69 1040.87 1040.73 1040.58 1040.37 1040.10 1039.78 1039.37 1039.09 1038.62 1037.99 1037.31 1036.63 1035.98 1035.25 1034.58 1033.99 1033.32 1032.64 1031.99 1031.31 1030.68 1030.02 1029.27
1022.50 1022.66 1023.76 1024.73 1026.10 1029.39 1031.82 1033.66 1034.90 1035.40 1036.41 1037.41 1038.16 1039.02 1039.46 1039.74 1039.22 1039.63 1040.34 1040.96 1040.98 1040.96 1040.83 1040.59 1040.26 1039.82 1039.31 1039.01 1038.64 1038.14 1037.52 1036.94 1036.32 1035.64 1035.00 1034.47 1033.83 1033.13 1032.50 1031.84 1031.23 1030.57 1029.76 1029.06
1023.87 1023.89 1024.14 1025.79 1027.40 1030.28 1033.04 1035.36 1036.69 1037.23 1037.85 1038.86 1039.60 1040.14 1040.41 1040.28 1039.46 1039.79 1040.71 1040.81 1040.71 1040.64 1040.35 1039.98 1039.59 1039.16 1038.93 1038.41 1037.91 1037.38 1036.87 1036.28 1035.66 1035.10 1034.68 1034.19 1033.63 1032.99 1032.32 1031.71 1030.97 1030.30 1029.68 1028.84
1025.51 1025.89 1026.17 1027.00 1028.99 1032.51 1035.16 1036.86 1038.01 1039.02 1040.09 1040.03 1040.65 1041.09 1041.26 1041.25 1041.05 1040.70 1040.71 1040.59 1040.39 1040.04 1039.73 1039.42 1039.06 1038.65 1038.17 1037.68 1037.22 1036.71 1036.19 1035.62 1035.08 1034.73 1034.34 1033.80 1033.32 1032.76 1032.21 1031.55 1030.95 1030.29 1029.56 1028.71
1028.45 1028.89 1029.06 1030.35 1031.78 1034.42 1036.66 1038.30 1039.38 1040.16 1040.72 1041.16 1041.48 1041.62 1041.86 1041.81 1041.49 1041.17 1040.72 1040.20 1039.84 1039.46 1039.11 1038.82 1038.35 1037.91 1037.48 1037.13 1036.63 1036.13 1035.66 1035.19 1034.89 1034.53 1034.06 1033.58 1033.10 1032.62 1032.00 1031.43 1030.77 1030.03 1029.30 1028.69
1031.87 1032.80 1032.59 1033.80 1034.85 1036.56 1038.18 1039.21 1040.47 1041.22 1041.65 1041.82 1042.19 1042.31 1042.36 1042.04 1041.55 1041.13 1040.54 1040.07 1039.46 1039.04 1038.68 1038.33 1037.95 1037.46 1037.05 1036.55 1036.17 1035.62 1035.24 1035.01 1034.63 1034.22 1033.73 1033.29 1032.80 1032.32 1031.79 1031.07 1030.31 1029.80 1029.22 1028.49
1034.16 1034.93 1034.86 1035.75 1037.03 1038.09 1039.43 1040.67 1041.43 1042.14 1042.58 1042.70 1042.57 1042.47 1042.42 1041.96 1041.41 1040.80 1040.15 1039.62 1039.09 1038.62 1038.19 1037.85 1037.45 1036.94 1036.26 1035.97 1035.64 1035.29 1034.88 1034.59 1034.21 1033.71 1033.27 1032.85 1032.37 1031.79 1031.19 1030.84 1030.17 1029.50 1028.98 1028.41
1035.61 1036.30 1036.90 1037.47 1038.65 1039.70 1040.65 1041.10 1041.86 1042.56 1042.86 1042.83 1042.54 1042.25 1041.84 1041.41 1040.78 1040.34 1039.74 1039.19 1038.69 1038.23 1037.83 1037.48 1036.87 1036.20 1035.75 1035.44 1035.04 1034.73 1034.40 1034.07 1033.66 1033.23 1032.81 1032.40 1031.90 1031.37 1030.86 1030.38 1029.77 1029.03 1028.53 1027.92
1036.66 1037.60 1038.34 1038.87 1039.91 1040.57 1041.00 1041.72 1042.31 1042.52 1042.55 1042.32 1041.96 1041.46 1041.14 1040.66 1040.15 1039.77 1039.20 1038.75 1038.31 1037.79 1037.30 1036.64 1036.37 1035.87 1035.30 1034.90 1034.46 1034.10 1033.81 1033.49 1033.11 1032.69 1032.25 1031.83 1031.35 1030.93 1030.44 1029.72 1028.95 1028.54 1027.70 1026.94
Wind_Speed
11 9 12 14 15 11 6 4 7 8 7 10 17 14 10 10 13 14 15 16 17 18 17 18 19 20 21 21 21 21 21 21 16 13 12 7 5 4 4 4 3 4 4 4
6 15 15 6 9 12 10 10 10 5 5 3 15 13 11 11 13 14 14 15 16 16 18 19 20 21 20 20 20 21 21 20 17 13 11 8 7 5 5 3 3 4 4 3
11 3 3 9 9 11 13 13 11 6 5 8 17 9 11 11 12 14 15 14 15 16 17 19 20 21 20 22 20 19 19 19 18 20 13 11 9 5 4 4 4 3 5 3
11 4 6 8 12 13 12 11 12 7 8 9 16 3 11 11 11 12 13 14 15 16 16 16 17 19 20 20 18 19 19 19 18 20 16 17 10 8 11 8 7 4 4 4
4 7 10 11 12 9 5 0 8 10 13 13 11 7 9 13 9 10 12 13 14 15 15 17 17 17 17 17 17 16 17 18 19 18 18 13 15 10 10 12 17 12 5 5
1 2 4 0 3 5 9 8 7 5 6 9 16 14 9 5 6 8 9 12 13 14 15 16 16 16 17 17 16 16 18 17 17 18 18 18 17 15 13 14 12 12 12 12
10 8 3 2 5 3 8 10 5 6 6 8 0 13 12 9 8 8 8 10 12 13 14 15 17 17 17 19 19 17 19 18 18 17 17 17 16 15 14 13 10 13 10 11
12 6 9 2 4 4 14 13 6 7 10 7 5 5 8 9 8 8 8 9 11 13 13 15 16 16 17 18 18 18 19 18 19 17 17 14 15 10 9 12 10 8 9 10
6 6 5 6 2 3 8 8 3 6 7 5 9 6 5 8 8 6 8 9 11 12 13 14 14 15 15 16 17 17 18 17 18 18 16 15 13 13 12 13 11 9 11 11
3 4 1 3 2 4 3 3 4 6 6 11 9 9 7 10 7 5 7 8 10 11 12 13 13 14 14 15 15 16 16 17 16 17 15 13 15 14 12 10 12 13 12 13
3 4 6 4 7 6 2 4 3 4 3 5 10 7 8 10 6 4 6 8 9 11 12 13 13 13 13 14 15 15 16 17 16 16 15 14 13 14 13 12 12 11 11 13
3 3 3 5 6 7 4 5 4 4 5 1 4 5 4 7 5 5 5 6 9 10 12 13 13 13 14 14 14 15 15 15 15 15 15 14 14 13 13 13 13 14 14 12
2 1 4 5 4 2 4 4 3 2 1 4 5 5 4 4 4 5 6 7 8 9 10 12 12 12 12 13 13 13 13 14 14 14 13 13 12 13 12 12 13 13 13 13
2 3 4 3 6 3 4 4 5 3 1 3 1 7 8 4 4 6 8 8 8 7 10 13 12 11 10 10 10 10 10 10 11 11 11 12 11 11 12 12 12 12 11 12
3 3 3 6 5 5 4 4 5 2 4 3 5 5 6 3 5 6 7 7 7 6 10 12 11 11 11 11 11 10 10 10 11 10 11 11 10 10 12 11 11 11 11 10
2 3 3 2 4 2 4 4 4 4 3 3 2 4 3 2 4 5 8 6 5 7 11 13 12 12 11 11 11 12 11 11 11 11 11 11 10 10 11 11 11 12 11 11
3 4 3 3 3 2 4 4 3 3 6 5 3 5 3 2 6 8 7 5 5 9 12 12 12 11 11 11 11 12 12 12 11 12 11 11 11 12 12 11 12 12 12 12
6 5 1 4 4 4 5 4 4 4 3 3 5 4 3 5 9 11 4 1 6 11 13 12 10 10 10 10 9 10 10 11 11 11 10 10 11 12 12 12 12 12 11 12
4 3 3 3 6 5 2 3 3 4 3 3 3 3 5 9 11 4 3 2 10 11 10 10 9 11 10 9 9 9 10 10 10 10 10 11 12 12 13 13 13 12 12 12
4 3 1 3 3 3 5 5 3 1 3 4 3 4 8 10 6 5 7 12 12 11 9 10 11 10 10 10 9 10 11 10 10 10 12 13 13 13 14 14 14 12 12 14
3 2 2 4 3 4 4 4 3 3 4 4 4 5 6 5 7 13 14 13 13 12 12 13 10 10 10 10 11 13 13 13 13 14 15 14 14 15 14 14 13 13 13 14
2 1 3 1 3 4 6 5 4 4 3 1 5 5 7 10 13 13 14 14 14 14 14 13 12 12 12 13 12 14 14 14 14 14 15 15 15 12 12 15 13 14 12 13
2 4 3 4 4 6 3 3 5 4 2 4 5 5 8 11 13 14 14 14 13 14 13 13 13 14 13 13 13 14 14 14 14 14 15 14 14 14 13 14 13 11 11 10
3 0 1 3 4 3 2 2 4 2 2 6 5 8 9 12 13 14 14 14 13 13 13 13 14 14 15 14 14 14 14 14 14 15 15 13 12 14 12 10 10 9 9 9
3 4 3 3 2 2 3 5 5 2 4 6 8 10 12 12 14 13 14 14 13 13 13 13 14 14 16 15 15 14 14 14 14 14 12 12 11 11 11 11 9 9 9 12
2 3 1 3 3 2 2 3 2 6 6 8 10 12 11 12 14 14 14 13 13 14 14 14 15 16 16 16 16 15 14 14 13 13 11 10 10 9 9 10 10 17 22 25
Wind_Direction
188 203 214 219 224 257 319 213 190 134 139 166 124 112 89 71 66 62 53 44 40 37 31 28 26 22 17 16 13 12 9 4 4 356 350 313 264 258 255 258 258 260 228 211
171 226 228 239 238 238 237 238 230 164 164 187 131 110 94 81 74 64 57 49 39 31 27 24 22 24 22 15 12 12 12 8 6 356 343 334 340 342 330 315 282 262 256 227
219 85 296 195 207 218 229 235 225 236 154 217 131 144 141 102 87 72 60 55 47 35 26 20 19 21 19 18 12 11 12 11 10 3 357 353 346 304 276 265 282 268 275 259
238 170 152 192 221 217 236 220 245 213 203 229 192 206 163 144 98 65 51 45 38 32 30 26 20 19 17 15 13 14 13 13 13 12 13 14 9 1 345 344 348 326 301 288
178 183 202 219 225 222 261 175 217 218 222 258 206 248 108 157 119 61 49 42 37 32 28 24 23 23 22 18 16 14 15 16 15 17 19 16 15 359 352 2 354 356 350 330
57 63 215 19 97 224 131 132 129 177 216 237 234 214 146 167 49 76 57 42 35 29 28 27 21 21 20 18 17 18 17 19 16 17 18 19 16 8 11 8 3 353 355 354
200 208 131 218 173 165 201 179 179 205 204 242 228 201 69 103 82 68 55 44 36 30 25 21 19 17 16 15 15 13 13 18 17 19 19 16 14 14 14 10 3 1 357 355
193 200 181 133 252 222 202 213 227 225 219 218 146 216 114 114 104 91 65 52 39 31 25 22 19 15 14 13 14 11 11 12 12 15 18 15 15 12 10 7 5 2 358 351
208 138 122 58 342 301 152 221 317 282 260 284 125 101 137 148 123 98 74 53 38 26 22 18 16 14 11 11 11 9 8 10 9 10 7 12 14 11 7 3 3 358 356 354
74 163 38 80 240 81 310 13 187 213 243 236 224 131 100 174 138 99 56 37 26 22 16 13 13 11 10 8 7 6 8 7 6 4 5 3 5 5 6 2 1 359 353 351
326 275 119 191 24 13 216 207 243 297 291 270 269 106 14 105 90 68 47 31 19 16 11 9 6 8 7 5 4 3 2 2 1 360 357 360 359 359 359 360 358 356 351 351
37 356 124 53 91 45 40 19 332 260 226 290 299 112 80 88 71 40 41 25 12 12 7 5 2 1 1 1 359 359 357 357 354 352 350 350 352 354 354 352 349 348 350 351
3 135 145 167 190 148 54 39 44 87 22 232 288 108 129 110 83 49 10 16 0 0 359 358 356 356 354 352 350 350 348 350 344 347 345 343 346 347 345 342 341 341 340 340
5 63 26 41 60 48 119 81 42 22 222 1 55 130 173 110 34 11 360 356 346 355 355 351 348 346 344 343 340 338 335 338 334 335 334 332 336 338 335 330 332 331 332 330
42 90 78 83 57 63 76 42 20 353 49 270 59 88 129 43 343 334 320 325 334 346 350 345 338 336 335 335 334 335 331 332 329 328 327 325 326 332 328 326 328 326 327 325
13 110 106 89 52 70 94 44 47 60 79 117 127 118 95 288 279 318 338 336 331 346 340 334 331 330 330 329 328 330 327 327 327 324 322 322 324 329 324 325 325 325 323 321
110 130 160 119 105 107 222 37 24 83 60 350 277 71 42 1 335 330 327 327 347 338 328 325 323 323 324 319 326 320 321 321 320 321 321 321 326 327 323 323 323 323 322 317
142 124 58 126 146 232 81 53 27 21 87 78 114 74 6 317 299 298 288 259 337 323 319 318 316 312 307 313 306 303 306 308 313 313 313 322 324 318 320 321 321 320 316 316
110 150 117 188 204 110 171 53 23 20 96 96 103 36 353 327 293 138 112 1 319 315 309 303 302 300 303 312 305 301 302 307 305 305 317 319 317 317 319 318 317 314 313 312
100 55 270 163 241 274 60 99 86 353 219 126 70 357 351 337 331 79 347 329 319 310 301 302 301 307 305 297 302 303 308 306 305 317 316 317 315 315 314 315 314 312 311 307
122 64 211 200 252 124 114 119 147 240 69 123 6 334 326 308 310 315 318 312 308 313 309 307 313 297 298 308 305 310 309 308 316 319 314 313 313 312 309 311 310 309 307 305
357 240 115 128 218 223 152 142 238 81 156 315 302 313 296 296 300 301 302 308 311 309 312 311 309 307 308 308 309 306 305 313 316 312 311 310 311 310 309 308 306 302 308 309
183 360 49 359 50 102 82 35 111 86 80 338 301 305 302 294 296 303 304 302 305 307 309 309 309 307 306 305 306 302 307 310 309 306 306 307 308 308 307 302 309 309 301 307
96 144 66 199 139 141 41 101 163 156 332 307 277 291 295 288 293 294 297 304 303 304 306 307 306 300 302 307 305 301 305 306 304 303 304 304 304 300 304 305 301 303 303 303
29 174 115 96 137 93 191 209 174 226 305 266 269 276 281 281 287 295 296 298 300 301 302 302 293 301 301 303 300 302 302 302 301 300 299 298 294 298 300 295 291 285 292 284
190 106 250 61 120 348 72 125 199 275 276 277 289 294 288 283 291 293 291 293 294 294 292 295 301 295 297 300 297 297 297 297 297 295 291 293 296 296 292 290 291 288 295 298